Time,TemperatureF,DewpointF,PressureIn,WindDirection,WindDirectionDegrees,WindSpeedMPH,WindSpeedGustMPH,Humidity,HourlyPrecipIn,Conditions,Clouds,dailyrainin,SolarRadiationWatts/m^2,SoftwareType,DateUTC
2017-07-23 00:02:00,73.7,74.0,29.81,NNW,342,2.1,2.4,100,0.00,,,0.21,0,TxWx,2017-07-23 05:02:00,
2017-07-23 00:07:00,73.6,74.0,29.81,NNW,341,1.2,1.5,100,0.00,,,0.21,0,TxWx,2017-07-23 05:07:00,
2017-07-23 00:12:00,73.4,73.0,29.81,NNW,342,1.2,1.5,100,0.00,,,0.21,0,TxWx,2017-07-23 05:12:00,
2017-07-23 00:17:00,73.3,73.0,29.80,NNW,342,3.0,3.3,100,0.00,,,0.21,0,TxWx,2017-07-23 05:17:00,
2017-07-23 00:22:00,73.3,73.0,29.81,NNW,342,0.9,0.9,100,0.00,,,0.21,0,TxWx,2017-07-23 05:22:00,
2017-07-23 00:27:00,73.1,73.0,29.80,NNW,341,0.9,1.2,100,0.00,,,0.21,0,TxWx,2017-07-23 05:27:00,
2017-07-23 00:32:00,73.1,73.0,29.81,NNW,342,1.5,1.8,100,0.00,,,0.21,0,TxWx,2017-07-23 05:32:00,
2017-07-23 00:37:00,73.1,73.0,29.80,NNW,342,0.3,0.6,100,0.00,,,0.21,0,TxWx,2017-07-23 05:37:00,
2017-07-23 00:42:00,73.0,73.0,29.81,NNW,341,0.3,0.6,100,0.00,,,0.21,0,TxWx,2017-07-23 05:42:00,
2017-07-23 00:47:00,73.0,73.0,29.81,NNW,341,0.9,1.2,100,0.00,,,0.21,0,TxWx,2017-07-23 05:47:00,
2017-07-23 00:52:00,72.9,73.0,29.80,NNW,342,1.8,2.1,100,0.00,,,0.21,0,TxWx,2017-07-23 05:52:00,
2017-07-23 00:58:00,72.9,73.0,29.80,NNW,342,1.5,1.5,100,0.00,,,0.21,0,TxWx,2017-07-23 05:58:00,
2017-07-23 01:03:00,72.8,73.0,29.80,NNW,342,2.4,2.4,100,0.00,,,0.21,0,TxWx,2017-07-23 06:03:00,
2017-07-23 01:08:00,72.8,73.0,29.80,NNW,341,0.3,0.9,100,0.00,,,0.00,0,TxWx,2017-07-23 06:08:00,
2017-07-23 01:13:00,72.8,73.0,29.80,NNW,342,0.0,0.0,100,0.00,,,0.00,0,TxWx,2017-07-23 06:13:00,
2017-07-23 01:18:00,72.8,73.0,29.80,NNW,341,0.0,0.0,100,0.00,,,0.00,0,TxWx,2017-07-23 06:18:00,
2017-07-23 01:23:00,72.7,73.0,29.81,NNW,342,1.8,2.1,100,0.00,,,0.00,0,TxWx,2017-07-23 06:23:00,
2017-07-23 01:28:00,72.7,73.0,29.80,NNW,342,0.0,0.3,100,0.00,,,0.00,0,TxWx,2017-07-23 06:28:00,
2017-07-23 01:33:00,72.7,73.0,29.80,NNW,342,1.2,1.2,100,0.00,,,0.00,0,TxWx,2017-07-23 06:33:00,
2017-07-23 01:38:00,72.7,73.0,29.80,NNW,342,0.6,0.6,100,0.00,,,0.00,0,TxWx,2017-07-23 06:38:00,
2017-07-23 01:43:00,72.7,73.0,29.79,NNW,342,0.3,0.3,100,0.00,,,0.00,0,TxWx,2017-07-23 06:43:00,
2017-07-23 01:48:00,72.6,73.0,29.80,NNW,341,0.0,0.0,100,0.00,,,0.00,0,TxWx,2017-07-23 06:48:00,
2017-07-23 01:53:00,72.6,73.0,29.80,NNW,341,0.0,0.0,100,0.00,,,0.00,0,TxWx,2017-07-23 06:53:00,
2017-07-23 01:58:00,72.5,73.0,29.79,NNW,342,0.3,0.6,100,0.00,,,0.00,0,TxWx,2017-07-23 06:58:00,
2017-07-23 02:03:00,72.5,72.0,29.79,NNW,342,0.0,0.0,100,0.00,,,0.00,0,TxWx,2017-07-23 07:03:00,
2017-07-23 02:08:00,72.4,72.0,29.78,NNW,342,0.0,0.0,100,0.00,,,0.00,0,TxWx,2017-07-23 07:08:00,
2017-07-23 02:13:00,72.3,72.0,29.79,NNW,342,0.0,0.0,100,0.00,,,0.00,0,TxWx,2017-07-23 07:13:00,
2017-07-23 02:18:00,72.3,72.0,29.79,NNW,341,0.6,0.9,100,0.00,,,0.00,0,TxWx,2017-07-23 07:18:00,
2017-07-23 02:23:00,72.3,72.0,29.78,NNW,341,0.0,0.0,100,0.00,,,0.00,0,TxWx,2017-07-23 07:23:00,
2017-07-23 02:28:00,72.3,72.0,29.78,NNW,342,0.0,0.0,100,0.00,,,0.00,0,TxWx,2017-07-23 07:28:00,